{"data":{"norad_id":58103,"epoch":"2026-05-24T08:44:05.483040Z","epoch_age_seconds":136830,"freshness":"FRESH","line1":"1 58103U 23161G   26144.36395235  .00007728  00000+0  27276-3 0  9993","line2":"2 58103  53.1580 174.1242 0000903  67.7159 292.3938 15.30201913146001","mean_motion":15.30201913,"eccentricity":9.03e-5,"inclination_deg":53.158,"raan_deg":174.1242,"arg_perigee_deg":67.7159,"mean_anomaly_deg":292.3938,"bstar":0.00027276,"rev_number":14600,"period_min":94.105228059534,"perigee_km":474.59050037601,"apogee_km":475.82821472818,"semimajor_km":6853.3463575521,"source":"CELESTRAK","updated_at":"2026-05-25T13:38:18.527190Z"}}